| time (UTC) | temp F | wind direction | speed knots | gust knots | rain 1hr in | rain 24hr in | rain mn in | humidity % | barometer mb |
| 20260507030030 | 0 | 295 | 1.7 | 4.3 | 0.00 | 0.00 | 0.00 | 1022.2 | |
| 20260507024533 | 0 | 295 | 1.7 | 4.3 | 0.00 | 0.00 | 0.00 | 1022.1 | |
| 20260507023034 | 0 | 295 | 1.7 | 5.2 | 0.00 | 0.00 | 0.00 | 1022.1 | |
| 20260507021531 | 0 | 295 | 1.7 | 5.2 | 0.00 | 0.00 | 0.00 | 1022.0 | |
| 20260507020028 | 0 | 295 | 2.6 | 4.3 | 0.00 | 0.00 | 0.00 | 1022.0 | |
| 20260507014527 | 0 | 293 | 1.7 | 4.3 | 0.00 | 0.00 | 0.00 | 1022.0 | |
| 20260507013027 | 0 | 293 | 1.7 | 5.2 | 0.00 | 0.00 | 0.00 | 1022.1 | |
| 20260507011533 | 0 | 285 | 1.7 | 4.3 | 0.00 | 0.00 | 0.00 | 1022.3 | |
| 20260507010027 | 0 | 286 | 0.9 | 3.5 | 0.00 | 0.00 | 0.00 | 1022.4 | |
| 20260507004534 | 0 | 286 | 1.7 | 3.5 | 0.00 | 0.00 | 0.00 | 1022.4 | |
| 20260507003023 | 0 | 286 | 1.7 | 3.5 | 0.00 | 0.00 | 0.00 | 1022.3 | |
| 20260507001519 | 0 | 285 | 0.9 | 3.5 | 0.00 | 0.00 | 0.00 | 1022.3 | |
| 20260507000017 | 0 | 285 | 0.9 | 3.5 | 0.00 | 0.00 | 0.00 | 1022.4 | |
| 20260506234510 | 0 | 285 | 0.9 | 4.3 | 0.00 | 0.00 | 0.00 | 1022.4 | |
| 20260506233005 | 0 | 285 | 1.7 | 4.3 | 0.00 | 0.00 | 0.00 | 1022.4 | |
| 20260506231603 | 0 | 284 | 1.7 | 5.2 | 0.00 | 0.00 | 0.00 | 1022.5 | |
| 20260506230056 | 0 | 279 | 1.7 | 3.5 | 0.00 | 0.00 | 0.00 | 1022.5 | |
| 20260506224552 | 0 | 278 | 0.9 | 4.3 | 0.00 | 0.00 | 0.00 | 1022.6 | |
| 20260506223047 | 0 | 277 | 0.9 | 3.5 | 0.00 | 0.00 | 0.00 | 1022.7 | |
| 20260506221543 | 0 | 285 | 0.9 | 4.3 | 0.00 | 0.00 | 0.00 | 1022.8 | |
| 20260506220041 | 0 | 283 | 0.9 | 3.5 | 0.00 | 0.00 | 0.00 | 1022.8 | |
| 20260506214538 | 0 | 272 | 0.9 | 4.3 | 0.00 | 0.00 | 0.00 | 1022.7 | |
| 20260506213031 | 0 | 273 | 1.7 | 5.2 | 0.00 | 0.00 | 0.00 | 1022.6 | |
| 20260506211526 | 0 | 274 | 0.9 | 3.5 | 0.00 | 0.00 | 0.00 | 1022.6 | |
| 20260506210022 | 0 | 273 | 0.9 | 6.1 | 0.00 | 0.00 | 0.00 | 1022.6 | |
| 20260506204517 | 0 | 271 | 0.9 | 4.3 | 0.00 | 0.00 | 0.00 | 1022.5 | |
| 20260506203020 | 0 | 277 | 0.9 | 3.5 | 0.00 | 0.00 | 0.00 | 1022.5 | |
| 20260506201509 | 0 | 278 | 1.7 | 4.3 | 0.00 | 0.00 | 0.00 | 1022.4 | |
| 20260506200004 | 0 | 278 | 1.7 | 3.5 | 0.00 | 0.00 | 0.00 | 1022.1 | |
| 20260506194607 | 0 | 278 | 0.9 | 4.3 | 0.00 | 0.00 | 0.00 | 1022.0 | |
| 20260506193058 | 0 | 279 | 1.7 | 5.2 | 0.00 | 0.00 | 0.00 | 1022.1 | |
| 20260506191601 | 0 | 279 | 1.7 | 5.2 | 0.00 | 0.00 | 0.00 | 1022.1 | |
| 20260506190045 | 0 | 283 | 1.7 | 4.3 | 0.00 | 0.00 | 0.00 | 1022.0 | |
| 20260506184540 | 0 | 287 | 1.7 | 4.3 | 0.00 | 0.00 | 0.00 | 1021.9 | |
| 20260506183035 | 0 | 290 | 1.7 | 4.3 | 0.00 | 0.00 | 0.00 | 1021.8 | |
| 20260506181531 | 0 | 288 | 1.7 | 4.3 | 0.00 | 0.00 | 0.00 | 1021.8 | |
| 20260506180027 | 0 | 280 | 2.6 | 5.2 | 0.00 | 0.00 | 0.00 | 1021.7 | |
| 20260506174522 | 0 | 271 | 1.7 | 4.3 | 0.00 | 0.00 | 0.00 | 1021.6 | |
| 20260506173017 | 0 | 273 | 0.9 | 3.5 | 0.00 | 0.00 | 0.00 | 1021.6 | |
| 20260506171517 | 0 | 274 | 0.9 | 5.2 | 0.00 | 0.00 | 0.00 | 1021.5 | |
| 20260506170009 | 0 | 275 | 0.9 | 4.3 | 0.00 | 0.00 | 0.00 | 1021.5 | |
| 20260506164504 | 0 | 276 | 1.7 | 5.2 | 0.00 | 0.00 | 0.00 | 1021.4 | |
| 20260506163105 | 0 | 0.0 | 0.0 | 0.00 | 0.00 | 0.00 | 1021.3 | ||
| 20260506161558 | 0 | 0.0 | 0.0 | 0.00 | 0.00 | 0.00 | 1021.1 | ||
| 20260506160050 | 0 | 0.0 | 0.0 | 0.00 | 0.00 | 0.00 | 1020.9 | ||
| 20260506154548 | 0 | 0.0 | 0.0 | 0.00 | 0.00 | 0.00 | 1020.6 | ||
| 20260506153041 | 0 | 0.0 | 0.0 | 0.00 | 0.00 | 0.00 | 1020.8 | ||
| 20260506151537 | 0 | 0.0 | 0.0 | 0.00 | 0.00 | 0.00 | 1020.9 | ||
| 20260506150032 | 0 | 0.0 | 0.0 | 0.00 | 0.00 | 0.00 | 1020.7 | ||
| 20260506144528 | 0 | 0.0 | 0.0 | 0.00 | 0.00 | 0.00 | 1020.0 | ||
| 20260506143027 | 0 | 0.0 | 0.0 | 0.00 | 0.00 | 0.00 | 1020.3 | ||
| 20260506141523 | 0 | 0.0 | 0.0 | 0.00 | 0.00 | 0.00 | 1019.8 | ||
| 20260506140016 | 0 | 0.0 | 0.0 | 0.00 | 0.00 | 0.00 | 1019.9 | ||
| 20260506134510 | 0 | 0.0 | 0.0 | 0.00 | 0.00 | 0.00 | 1020.0 | ||
| 20260506133006 | 0 | 0.0 | 0.0 | 0.00 | 0.00 | 0.00 | 1020.2 | ||
| 20260506131506 | 0 | 0.0 | 0.0 | 0.00 | 0.00 | 0.00 | 1019.9 | ||
| 20260506130057 | 0 | 0.0 | 0.0 | 0.00 | 0.00 | 0.00 | 1020.1 | ||
| 20260506124553 | 0 | 0.0 | 0.0 | 0.00 | 0.00 | 0.00 | 1019.7 | ||
| 20260506123049 | 0 | 0.0 | 0.0 | 0.00 | 0.00 | 0.00 | 1019.7 | ||
| 20260506121544 | 0 | 0.0 | 0.0 | 0.00 | 0.00 | 0.00 | 1019.7 | ||
| 20260506120040 | 0 | 0.0 | 0.0 | 0.00 | 0.00 | 0.00 | 1019.5 | ||
| 20260506114535 | 0 | 0.0 | 0.0 | 0.00 | 0.00 | 0.00 | 1019.4 | ||
| 20260506113031 | 0 | 0.0 | 0.0 | 0.00 | 0.00 | 0.00 | 1019.4 | ||
| 20260506111527 | 0 | 0.0 | 0.0 | 0.00 | 0.00 | 0.00 | 1019.3 | ||
| 20260506110023 | 0 | 0.0 | 0.0 | 0.00 | 0.00 | 0.00 | 1019.1 | ||
| 20260506104518 | 0 | 0.0 | 0.0 | 0.00 | 0.00 | 0.00 | 1019.1 | ||
| 20260506103014 | 0 | 0.0 | 0.0 | 0.00 | 0.00 | 0.00 | 1019.0 | ||
| 20260506101510 | 0 | 0.0 | 0.0 | 0.00 | 0.00 | 0.00 | 1018.9 | ||
| 20260506100006 | 0 | 266 | 0.9 | 4.3 | 0.00 | 0.00 | 0.00 | 1018.9 | |
| 20260506094501 | 0 | 266 | 0.9 | 4.3 | 0.00 | 0.00 | 0.00 | 1018.8 | |
| 20260506093058 | 0 | 266 | 0.0 | 1.7 | 0.00 | 0.00 | 0.00 | 1018.7 | |
| 20260506091553 | 0 | 266 | 0.0 | 2.6 | 0.00 | 0.00 | 0.00 | 1018.7 | |
| 20260506090049 | 0 | 266 | 0.9 | 2.6 | 0.00 | 0.00 | 0.00 | 1018.6 | |
| 20260506084548 | 0 | 266 | 0.0 | 0.9 | 0.00 | 0.00 | 0.00 | 1018.5 | |
| 20260506083041 | 0 | 266 | 0.0 | 2.6 | 0.00 | 0.00 | 0.00 | 1018.5 | |
| 20260506081535 | 0 | 266 | 0.0 | 3.5 | 0.00 | 0.00 | 0.00 | 1018.4 | |
| 20260506073022 | 0 | 266 | 0.0 | 0.0 | 0.00 | 0.00 | 0.00 | 1018.0 | |
| 20260506071517 | 0 | 266 | 0.0 | 0.0 | 0.00 | 0.00 | 0.00 | 1017.9 | |
| 20260506061611 | 0 | 266 | 0.0 | 0.0 | 0.00 | 0.00 | 0.00 | 1017.6 | |
| 20260506044540 | 0 | 266 | 0.0 | 1.7 | 0.00 | 0.00 | 0.00 | 1017.5 | |
| 20260506043028 | 0 | 266 | 0.9 | 2.6 | 0.00 | 0.00 | 0.00 | 1017.4 | |
| 20260506041537 | 0 | 266 | 1.7 | 3.5 | 0.00 | 0.00 | 0.00 | 1017.4 | |
| 20260506040019 | 0 | 266 | 0.0 | 2.6 | 0.00 | 0.00 | 0.00 | 1017.0 | |
| 20260506034514 | 0 | 266 | 0.9 | 2.6 | 0.00 | 0.00 | 0.00 | 1016.9 | |
| 20260506033010 | 0 | 266 | 0.9 | 3.5 | 0.00 | 0.00 | 0.00 | 1016.7 | |
| 20260506031507 | 0 | 266 | 0.9 | 2.6 | 0.00 | 0.00 | 0.00 | 1016.7 |